Location: Chacón
(10.5789°N, 66.9317°W)
Time: 01:29:53
(UTC+00:00)

ATLAS 2AS CENTAUR R/B - Pass Details

Date: 23 May 2024
Orbit: 1038 x 1173 km, 63.7° (Epoch: 24 May)

Event Time Altitude Azimuth Distance (km) Brightness Sun altitude
Rises 09:03:11 0° 339° (NNW) 3,801 5.6 -14.8°
Reaches altitude 10° 09:05:49 10° 341° (NNW) 2,840 5.0 -14.2°
Maximum altitude 09:12:29 75° 67° (ENE) 1,070 2.9 -12.7°
Drops below altitude 10° 09:19:09 10° 151° (SSE) 2,844 5.0 -11.2°
Sets 09:21:47 0° 153° (SSE) 3,807 5.6 -10.6°
